Vorticity
5 8 6 2 3 4 3 4 5 9 10 5 4 8 8 7 7 6 4 6 6 8 6 1 2 7 8 6 7 7 2 -2 -3 -0 5 9 11 10 6 6 11 5 6 3 -3 10 2 -3 7 4 4 4 4 5 5 5 3 4 5 5 5 4 3 3 2 4 4 5 5 4 5 5 5 4 4 5 4 4 4 4 4 5 6 6 7 7 8 9 9 8 6 6 5 4 5 9 8
5 2 -4 -4 3 3 4 5 5 5 6 7 6 6 5 6 9 8 6 5 5 5 6 5 7 7 4 3 4 3 -0 2 2 4 8 12 14 8 5 8 8 6 8 3 -0 9 2 -2 7 4 4 5 3 4 4 3 2 3 4 5 4 4 4 3 3 3 4 5 4 4 5 5 5 4 4 5 4 4 4 4 5 5 5 5 6 6 7 8 9 8 8 7 5 6 4 9 7
0 0 -4 -3 4 2 2 5 5 4 4 5 4 4 3 5 9 10 7 3 5 6 5 7 10 8 2 -0 3 4 1 3 5 6 7 9 14 8 5 7 6 8 5 4 5 5 2 1 6 5 2 3 3 4 3 3 4 3 3 5 4 5 5 4 2 3 4 4 3 5 6 5 5 5 5 4 4 5 5 6 6 6 5 4 4 4 5 6 8 9 10 9 6 7 5 9 6
-0 4 3 4 7 3 4 5 5 6 7 5 2 1 2 5 7 10 8 4 8 9 7 6 4 4 1 2 6 6 3 6 6 4 7 8 11 6 2 5 5 7 3 3 6 3 2 3 5 4 3 3 3 5 5 5 5 4 5 5 4 5 4 4 3 3 5 5 5 5 6 5 5 5 4 4 5 7 6 7 6 5 5 4 4 4 5 4 6 9 11 12 9 9 6 8 6
7 7 5 8 7 5 5 2 3 5 6 6 5 3 3 3 4 8 7 4 5 6 9 7 4 5 7 8 4 1 6 11 8 3 6 9 8 1 3 10 6 4 3 4 6 5 4 4 4 3 3 4 4 6 6 4 5 5 5 5 4 3 3 5 4 5 8 6 5 5 6 6 5 5 5 6 6 7 5 5 6 5 5 5 6 5 5 5 5 6 8 12 11 11 8 6 6
7 3 3 8 3 3 4 3 4 4 3 4 5 4 4 4 5 6 5 5 4 5 7 8 9 10 13 12 4 1 2 5 6 3 5 8 7 -0 2 8 5 2 1 3 6 5 6 6 4 3 4 4 5 6 5 5 5 5 5 4 5 4 3 5 4 6 7 5 5 4 6 6 4 5 5 5 5 5 4 5 5 4 6 5 6 6 5 5 5 4 4 8 11 12 10 7 7
2 -0 1 5 1 2 6 8 9 6 3 2 4 4 4 3 4 5 3 3 1 2 5 7 8 8 11 11 10 7 -2 1 4 2 3 6 7 3 1 4 5 3 0 2 4 2 4 8 6 3 4 5 6 6 6 7 6 5 4 4 4 4 5 5 5 6 6 6 7 5 5 5 3 4 4 4 4 4 4 5 5 5 5 5 5 5 4 5 4 5 4 5 8 10 11 10 7
1 3 2 3 1 3 5 7 6 4 5 4 5 5 5 4 4 4 3 6 6 5 6 5 3 7 9 2 5 6 0 3 3 2 4 4 7 7 4 4 6 5 2 3 4 1 1 5 5 4 5 5 5 6 5 5 5 4 3 4 4 5 6 6 6 6 6 5 5 5 4 3 3 3 3 3 3 3 4 4 5 6 6 6 6 6 5 5 4 4 6 4 5 6 8 11 10
5 5 5 9 4 3 4 6 7 7 9 8 10 9 7 5 3 3 3 5 7 6 5 5 5 10 11 6 5 2 1 3 2 7 7 2 3 5 4 6 7 4 2 2 2 4 4 4 5 4 5 4 3 4 3 3 4 3 4 5 5 5 6 5 5 4 4 3 3 4 3 4 4 4 3 3 4 4 4 4 5 5 6 7 7 8 7 7 6 5 5 5 4 4 4 8 10
5 4 3 6 4 6 6 7 8 5 3 5 10 12 11 10 8 7 8 9 8 7 8 11 12 10 8 11 8 -0 3 4 3 6 6 3 2 3 4 6 6 3 0 0 3 5 6 5 5 5 5 4 2 3 3 3 4 5 6 6 6 6 6 4 5 5 6 6 5 5 4 5 5 5 5 4 5 4 4 4 4 4 4 5 5 6 6 8 9 8 6 4 4 5 5 3 6
5 7 1 5 7 9 8 5 2 -1 1 4 7 9 14 13 10 9 9 11 12 9 11 15 13 10 9 13 11 5 7 5 5 5 3 6 5 6 6 5 4 3 0 -0 3 6 7 5 4 4 4 3 1 2 2 3 4 6 6 6 6 6 6 6 6 7 7 7 6 6 6 6 6 4 4 4 4 4 4 4 4 4 3 4 6 4 3 4 7 10 10 6 4 4 5 3 3
4 7 4 11 10 6 6 6 5 3 6 6 4 6 12 10 7 9 7 6 11 9 10 15 9 7 9 10 11 8 7 7 8 7 4 5 5 6 5 3 4 6 5 1 3 4 6 5 3 2 1 2 1 1 1 2 4 5 7 6 7 6 6 6 6 5 4 4 4 5 4 4 4 3 3 3 3 3 3 3 4 4 3 4 5 4 3 2 4 8 13 13 9 4 4 5 4
3 1 3 12 9 2 3 9 8 5 8 6 1 2 7 9 7 8 7 6 10 11 12 17 12 7 9 9 11 10 10 10 10 8 7 6 3 4 4 4 6 9 7 1 1 3 4 3 2 3 2 3 3 3 2 3 4 4 7 7 6 5 4 4 5 5 6 7 7 6 6 5 4 5 6 5 5 5 5 5 4 2 3 3 3 6 5 4 4 4 9 15 16 11 6 4 4
0 0 1 10 5 0 4 9 7 7 7 6 7 5 6 6 6 7 4 4 9 14 14 16 16 12 12 14 15 14 14 13 10 9 8 6 4 5 6 8 9 9 8 4 3 3 2 2 3 5 6 7 7 6 3 3 5 4 5 5 4 3 4 5 4 8 11 8 8 9 9 10 9 8 8 7 7 6 7 7 7 5 2 1 4 8 6 6 6 5 6 8 12 15 12 8 5
-4 5 3 2 1 3 4 -0 1 14 11 6 13 8 6 6 7 10 5 5 9 13 11 9 12 10 10 13 15 12 11 11 10 9 8 8 8 8 10 12 14 12 11 9 7 4 2 5 7 8 9 8 7 8 5 4 7 7 7 7 7 7 4 4 5 7 8 4 5 8 8 8 9 10 10 8 8 7 8 8 8 6 2 4 12 10 5 9 11 9 8 6 7 10 14 14 11
5 9 5 -1 1 2 -1 -3 6 20 9 1 10 5 6 8 7 11 9 8 6 6 7 8 11 10 9 10 10 8 8 10 9 8 8 7 9 11 12 12 11 9 8 8 8 6 6 10 9 7 10 7 4 6 6 7 8 7 9 9 11 12 4 2 6 8 7 7 9 9 9 11 10 10 9 9 7 8 15 17 10 4 1 10 20 12 5 12 13 11 13 11 9 7 8 11 13
10 9 8 -2 -8 -7 -6 2 16 22 8 -1 5 3 8 8 4 7 7 8 6 6 7 8 10 9 9 7 7 9 9 10 9 8 7 7 9 8 9 8 5 5 7 7 9 10 7 8 8 10 13 11 9 7 6 6 8 11 10 7 11 13 8 5 6 7 6 6 9 10 11 16 16 13 10 10 7 5 13 20 14 3 -2 6 16 12 8 11 11 9 12 13 11 10 8 6 9
4 5 7 -6 -14 -5 -4 -5 2 11 14 8 5 4 4 6 4 4 7 8 6 7 5 3 7 8 7 6 6 9 10 9 7 7 8 9 10 7 4 4 7 6 4 4 7 10 7 6 10 12 10 10 11 11 7 3 8 18 12 5 10 11 10 11 8 8 7 3 7 11 11 13 14 15 14 12 9 3 5 11 10 4 2 5 9 10 8 8 8 7 7 8 7 7 10 10 8
-1 -1 3 -1 -5 0 -0 2 3 4 13 9 8 8 4 5 4 6 9 7 5 7 7 4 5 7 8 7 5 7 8 8 7 9 9 9 8 10 8 6 12 8 1 5 7 9 11 11 9 6 5 4 5 6 6 7 12 17 8 1 7 6 6 9 10 13 12 7 9 12 12 11 10 11 12 10 8 4 4 6 7 6 8 7 4 7 8 4 4 4 2 3 4 4 6 10 11
4 10 10 3 2 -0 -4 13 19 13 17 9 9 10 6 7 4 10 11 5 7 8 8 5 3 5 6 7 6 6 7 8 9 10 10 9 3 7 10 4 8 7 1 5 4 4 10 13 7 1 4 5 3 4 5 11 13 9 2 -2 -0 3 5 4 5 10 10 8 9 10 10 11 10 8 8 8 7 7 7 8 7 7 9 7 6 10 9 5 3 3 3 4 6 8 7 7 10
9 18 12 -3 2 -2 -10 16 30 21 18 8 7 7 5 8 5 11 13 5 7 6 4 3 4 5 4 6 6 6 7 7 9 9 10 10 5 7 9 1 4 7 5 5 1 3 7 5 3 1 6 7 5 5 3 7 9 6 5 3 1 3 5 5 4 5 6 6 7 10 9 8 9 7 7 8 8 9 8 8 6 5 8 9 11 12 9 8 9 8 7 8 9 11 12 9 9
2 5 7 -2 -0 -5 -11 7 18 14 9 4 6 8 6 8 8 10 12 7 4 5 6 6 6 7 5 5 6 7 7 6 6 7 7 10 11 11 9 4 4 3 4 6 4 9 10 1 -1 3 7 6 4 6 4 2 4 5 6 7 8 8 7 8 9 8 7 5 6 10 9 8 7 6 6 7 7 9 10 10 8 7 9 10 9 8 7 8 9 10 8 8 10 13 17 15 10
-6 1 9 0 -1 4 1 0 7 10 5 3 4 8 11 9 10 10 8 7 5 10 12 9 7 7 6 4 6 6 6 5 4 6 5 7 10 10 11 7 4 1 1 4 2 9 14 7 5 9 10 7 4 6 4 -1 3 8 4 3 6 9 8 7 8 9 8 5 5 8 9 6 3 6 8 8 10 11 12 11 10 10 10 10 10 8 8 8 9 10 9 8 8 12 18 18 11
-11 2 9 1 -3 -2 -2 5 20 14 -1 5 4 3 9 7 12 13 10 8 6 11 12 9 8 7 6 3 6 8 6 6 4 6 6 7 7 7 10 8 6 6 5 5 2 3 8 10 12 13 13 12 7 4 5 3 6 9 5 4 5 7 7 6 6 9 12 11 9 9 11 4 -3 3 9 9 11 12 11 10 9 9 8 10 12 12 11 12 12 11 10 10 8 9 12 15 14
-5 -2 3 3 3 4 16 28 25 8 -0 8 5 3 6 4 11 14 14 11 6 8 9 10 9 7 7 4 7 10 9 8 5 6 7 7 7 7 8 7 6 4 3 3 2 2 2 5 10 9 7 8 7 6 9 7 4 5 6 9 9 8 9 8 5 8 12 12 11 11 13 12 5 7 10 7 8 9 10 9 8 7 8 10 10 9 9 8 9 10 9 8 9 9 8 9 13
-1 -3 0 1 3 6 27 36 14 4 6 4 7 12 9 6 10 12 15 14 9 10 8 8 8 8 9 7 7 10 10 9 6 6 6 5 5 7 7 6 5 3 3 1 1 8 6 4 6 7 5 5 6 5 5 5 3 5 6 9 9 6 8 10 7 5 8 9 9 10 11 13 13 12 11 9 8 8 8 6 7 8 8 9 8 7 6 5 7 8 7 6 7 9 8 7 8
0 4 2 -0 -1 -9 6 23 9 5 6 4 14 17 8 9 13 11 12 10 8 10 9 8 8 8 9 8 9 10 11 11 9 6 6 6 4 6 7 6 8 6 6 5 4 9 7 5 4 4 5 5 5 3 3 2 2 3 3 9 13 9 4 4 6 5 6 10 10 10 9 7 8 10 9 9 9 8 7 6 6 7 7 6 6 6 6 6 7 9 8 5 4 5 7 7 6
-1 3 -2 -1 0 -3 9 20 9 4 6 8 15 12 1 2 8 10 7 7 8 8 8 11 10 8 8 9 10 9 9 10 12 10 7 8 7 6 7 7 9 9 9 10 8 6 5 6 4 4 5 3 4 4 4 2 2 3 3 8 14 16 11 4 7 7 6 11 11 8 8 6 6 7 7 7 7 7 7 6 6 7 7 6 6 7 7 6 7 9 9 8 6 4 6 7 6
7 0 -2 1 -3 4 14 12 9 5 4 7 9 9 7 4 7 6 1 3 9 6 4 9 12 12 10 8 9 10 10 10 11 11 8 9 10 8 7 7 7 8 10 11 9 6 5 6 5 5 5 3 4 4 3 3 4 5 4 8 10 11 12 7 7 10 8 9 10 9 8 8 7 7 8 8 7 7 6 5 6 6 6 7 7 7 7 7 8 9 8 8 8 6 5 7 7
11 6 13 17 10 17 13 4 6 -1 0 10 7 6 8 11 10 6 5 3 4 4 1 5 10 10 8 5 6 10 11 10 9 10 9 9 10 9 8 8 7 7 8 7 7 5 6 7 6 5 5 5 5 4 5 5 4 5 5 8 8 6 7 7 7 8 6 6 8 9 8 8 7 6 7 8 7 7 6 5 5 5 6 7 7 8 8 8 8 9 10 8 8 7 6 7 7
9 7 16 23 19 19 8 -0 1 -1 8 11 3 2 1 4 6 8 16 12 6 8 6 6 9 8 9 6 4 7 9 8 7 7 7 7 8 7 7 7 6 4 5 5 5 6 5 5 5 5 5 6 7 7 7 7 5 5 4 6 7 5 5 5 7 8 7 6 7 8 8 7 6 7 6 7 7 6 6 6 5 5 6 6 6 7 8 9 9 10 10 9 8 9 8 7 7
13 1 -5 2 10 13 5 2 3 6 14 8 2 7 4 4 3 2 12 15 10 13 11 7 9 9 10 9 6 7 9 10 9 6 4 5 5 6 5 4 5 4 4 5 5 5 5 5 5 6 7 8 9 9 8 8 8 5 4 6 7 5 3 3 4 7 7 6 6 6 7 7 6 6 7 7 7 6 6 5 5 6 5 5 6 6 7 8 8 9 9 8 8 8 9 7 6
9 2 -10 -6 9 10 -0 -1 6 8 12 11 8 9 6 5 5 -0 2 8 9 11 12 8 9 9 7 9 9 8 10 10 11 7 5 6 4 4 5 4 6 6 5 5 5 5 5 6 7 7 7 7 8 8 8 8 8 8 7 8 7 3 3 3 3 4 6 6 6 6 6 7 6 6 6 7 6 6 6 5 5 5 5 5 5 5 6 6 6 6 7 7 7 7 8 8 7
4 5 3 7 8 9 5 5 9 5 4 3 0 7 8 -1 -0 5 3 5 7 7 8 7 9 9 6 8 9 10 11 9 11 9 6 7 6 6 6 6 6 6 6 5 6 7 7 7 7 7 5 4 7 8 8 8 8 9 9 7 5 4 4 4 3 2 4 6 5 5 6 6 6 6 6 6 5 5 5 5 5 5 6 5 5 5 4 5 4 4 5 5 6 7 7 8 8
10 12 15 8 -2 12 19 9 3 2 9 6 -5 2 9 3 2 7 6 7 8 6 5 5 7 9 8 7 7 11 12 9 11 12 10 8 8 8 6 6 5 4 5 6 7 8 7 6 4 4 4 5 8 8 7 7 7 8 8 7 6 6 6 6 5 3 3 5 5 5 5 5 6 5 5 5 4 4 4 4 4 4 6 6 6 6 4 4 4 4 4 3 4 6 7 8 8
15 19 23 -1 -14 7 9 0 0 4 14 11 -2 -7 -0 15 19 10 4 7 8 4 3 4 6 7 8 10 7 5 7 8 10 11 11 9 7 7 5 4 4 4 5 6 8 7 6 6 4 4 6 7 8 7 7 6 7 8 7 8 8 7 8 7 7 5 3 4 5 6 5 5 6 5 5 5 4 4 4 3 3 3 4 5 6 7 8 6 5 4 4 4 3 4 5 6 6
12 13 15 -4 -12 1 2 2 -0 5 16 10 2 -4 -6 7 18 18 10 5 6 4 3 5 7 6 6 11 9 2 0 5 8 8 7 6 6 6 5 5 4 4 6 6 7 8 7 7 7 7 6 7 7 6 7 7 7 9 8 8 9 8 9 9 8 6 4 3 5 6 6 5 5 6 5 5 5 4 4 3 3 3 3 3 4 5 8 7 6 6 4 4 3 3 3 3 2
2 -8 -10 -9 -6 -9 -3 4 -4 4 13 2 -3 1 5 -0 -2 14 16 6 7 6 5 6 6 8 5 5 8 5 4 4 5 7 7 5 6 7 6 6 5 5 6 8 9 8 7 7 6 6 6 6 6 6 6 6 7 7 8 8 8 9 8 8 8 8 6 4 4 5 6 7 5 6 6 5 6 5 5 4 3 3 3 3 4 4 5 6 6 7 7 6 5 4 3 3 3
-5 -13 -14 -7 -4 -12 -7 -1 -4 6 4 -6 -5 -2 8 -3 -17 6 19 10 7 5 8 10 5 6 5 5 8 5 4 4 3 5 8 7 6 8 7 5 5 6 6 6 8 6 4 4 4 5 5 5 5 5 3 3 4 3 4 5 5 6 5 5 6 6 6 5 5 5 5 6 5 6 6 6 7 6 6 6 5 5 4 4 4 4 4 4 5 7 8 8 6 5 4 3 2
-6 -3 1 -2 -6 -4 1 -7 -9 8 8 -0 1 -0 2 -8 -11 11 14 6 8 4 4 10 11 8 3 5 11 8 4 4 2 1 3 3 5 9 7 5 6 6 5 5 5 4 2 2 4 4 3 4 3 3 2 1 2 2 1 1 1 2 2 2 2 2 3 3 3 3 3 4 4 4 6 6 6 6 6 6 6 7 6 6 5 5 5 4 5 5 5 7 7 6 5 3 3
-4 3 9 -0 -8 -5 -0 -4 -6 5 7 -5 -7 -1 -0 -6 2 15 8 6 14 10 -0 1 9 10 4 4 11 13 8 5 3 1 2 2 6 9 6 7 9 7 5 5 3 3 3 2 2 2 2 3 3 2 2 2 2 2 2 2 1 2 1 1 2 1 1 2 2 2 2 3 4 3 4 4 4 5 5 5 6 7 6 7 6 6 6 5 5 5 5 6 7 6 5 4 4
5 13 14 2 -5 -8 -8 -2 0 -3 -4 -3 -3 -0 -1 -2 6 11 8 9 13 14 8 5 9 8 5 4 9 14 12 8 5 3 4 3 3 6 7 7 8 8 6 4 3 1 1 1 1 3 2 2 3 2 2 2 2 3 3 4 3 2 3 2 2 2 2 2 2 2 3 3 4 4 4 4 4 4 4 4 5 5 5 6 6 7 7 7 7 6 5 6 7 6 5 5 4
3 12 15 6 -3 -1 7 17 18 1 -7 5 9 5 2 -2 1 5 4 7 16 20 16 16 16 12 8 6 6 9 7 8 8 5 4 2 1 2 7 9 6 7 7 4 2 1 1 2 1 2 2 1 2 2 2 1 1 2 3 4 4 4 4 4 3 3 3 2 2 2 2 3 3 4 5 5 5 5 4 4 4 4 4 5 6 6 7 7 7 7 6 6 6 6 6 6 5
7 10 10 2 -11 -7 12 20 18 9 0 4 5 4 2 -5 2 10 2 9 26 17 7 14 15 11 12 10 11 14 9 8 11 9 5 5 5 3 4 7 6 6 8 5 3 2 1 1 2 3 2 1 2 3 3 2 1 2 3 4 4 4 4 4 4 4 3 3 2 1 0 1 3 3 4 5 6 6 6 5 4 4 4 4 5 6 6 7 7 7 7 7 6 6 7 7 6
19 12 1 -3 -12 -8 8 4 -1 8 4 -3 -0 5 1 -6 6 11 -2 12 30 12 1 6 3 5 13 13 14 19 15 12 13 11 9 8 6 5 4 4 5 5 5 5 5 4 2 3 5 5 3 2 3 2 2 2 2 1 3 3 3 4 3 3 4 3 4 4 2 2 1 2 3 3 3 4 5 7 8 8 7 5 5 5 5 6 6 7 7 7 7 8 7 6 7 6 6
18 5 1 5 -9 -10 9 5 -5 1 -1 -3 8 9 6 5 10 9 -0 7 14 6 3 -2 -4 5 10 13 14 12 12 12 14 11 6 9 9 7 6 3 3 4 3 5 5 5 6 7 6 5 5 5 2 2 1 0 1 1 2 4 4 5 6 5 5 4 5 5 5 6 5 4 3 2 3 4 6 8 9 9 8 7 6 5 5 5 6 7 7 9 8 8 7 6 7 7 6
9 -9 2 17 -1 -11 10 13 -2 -5 -4 3 9 2 2 8 7 1 -1 3 1 5 8 -2 -0 4 0 15 23 12 11 10 11 14 9 9 14 13 12 8 5 3 3 4 3 3 4 3 3 3 3 3 1 1 1 -1 -1 -1 -0 3 4 5 6 6 6 5 5 4 4 4 4 3 3 3 3 4 7 9 10 10 8 8 7 5 5 5 6 7 8 9 9 8 8 7 7 8 7
2 -10 4 18 9 -1 4 5 0 0 -3 -1 10 13 8 6 7 -2 -9 2 5 6 10 2 2 2 -4 15 22 11 18 17 11 19 19 14 12 13 17 15 11 8 6 5 4 3 3 1 1 1 -0 1 1 -1 -2 -1 -0 -2 -2 3 7 7 7 8 6 5 4 3 2 2 3 3 2 3 5 6 8 10 10 10 9 9 8 6 5 5 6 8 8 9 9 9 9 9 8 8 8
17 10 12 12 11 8 0 -3 3 8 2 -1 11 19 8 -2 3 -4 -15 -1 4 -2 7 10 2 -3 -3 10 14 9 20 24 15 16 16 8 3 5 9 9 9 11 9 7 8 7 7 7 5 5 5 5 4 4 4 5 6 5 3 6 11 11 9 8 6 5 5 3 2 2 2 2 3 6 8 10 12 12 11 11 10 9 7 6 5 5 6 7 8 9 10 10 10 9 8 8 7
25 9 6 7 8 8 -4 -10 -1 4 5 9 6 -3 -8 -8 -5 -2 7 24 22 6 8 12 -2 -6 3 11 13 14 17 22 19 16 13 8 3 3 4 5 9 12 11 9 9 10 11 12 11 11 12 11 11 11 11 12 15 15 12 12 14 14 10 7 6 5 6 4 3 4 3 4 7 8 9 12 13 12 11 9 9 7 5 5 4 5 7 8 9 9 10 11 10 9 9 8 8
16 -1 -2 3 4 7 2 -1 1 -2 -2 5 -0 -12 -7 1 -4 -2 14 22 19 11 6 4 -5 -4 7 8 12 19 18 23 21 8 6 9 10 9 8 9 9 8 11 10 8 10 10 12 12 10 12 13 12 13 14 16 15 12 10 10 11 13 12 9 7 7 6 6 5 5 6 8 10 8 8 13 12 10 10 9 7 6 4 5 5 6 8 8 9 9 9 10 9 9 9 8 8
12 5 -3 -3 4 8 8 10 9 2 4 4 -6 -8 8 23 16 6 8 7 4 7 6 2 -0 4 8 2 6 12 11 26 34 19 11 13 14 13 9 7 6 5 11 11 7 9 10 10 9 8 10 10 10 15 18 14 9 7 8 8 8 10 11 10 9 7 6 6 6 6 9 10 8 9 11 12 10 9 10 8 7 6 5 5 6 7 8 8 8 8 9 9 9 8 8 7 6
10 12 -0 -3 10 13 3 6 15 10 5 3 -5 1 20 31 22 10 11 13 9 7 5 1 1 6 6 2 8 9 0 9 19 16 17 20 18 17 13 8 8 8 9 8 7 7 8 8 7 8 9 7 8 12 14 11 9 10 10 8 8 8 9 9 9 9 8 7 7 9 10 8 7 12 13 10 9 10 9 7 6 5 5 5 5 5 6 7 7 9 9 9 8 8 8 8 7
11 13 9 -1 -1 8 2 1 22 22 5 2 -0 1 16 19 7 -1 2 7 7 4 3 2 3 7 6 4 7 5 1 3 3 1 10 19 19 17 17 14 8 5 5 6 5 6 9 8 5 6 7 5 6 7 6 6 8 11 10 7 9 10 9 11 11 10 9 7 9 11 9 6 7 11 11 8 9 10 8 6 5 4 4 4 4 5 6 7 8 8 7 7 7 8 9 9 9
13 9 21 24 -0 -7 -1 -4 8 15 5 6 1 -6 8 16 6 0 4 10 8 8 13 9 4 5 3 2 4 3 6 12 13 13 14 19 20 13 8 8 5 4 8 8 6 7 12 9 2 5 7 7 9 7 3 4 6 9 9 7 9 9 8 11 10 9 10 8 10 12 8 5 6 8 9 8 8 8 7 6 6 5 5 4 4 5 7 7 6 6 5 5 6 7 9 9 10
17 6 13 33 15 -7 3 7 2 1 0 2 -1 -3 7 8 -1 -4 4 12 11 11 15 5 -2 4 2 -1 4 9 11 14 19 21 16 16 19 14 7 7 6 6 7 7 6 8 10 8 4 4 6 8 10 6 2 4 7 9 11 10 7 4 5 8 8 10 13 10 8 10 7 5 5 6 7 7 6 7 7 7 7 6 3 1 2 3 5 4 5 6 5 5 6 5 6 7 8
19 6 -5 9 15 5 9 11 3 2 3 0 -0 5 8 4 -0 -3 -3 2 5 5 1 -6 -4 4 1 0 7 10 8 8 14 20 18 18 17 13 13 13 9 8 9 8 8 8 7 7 6 4 4 8 10 6 2 3 6 8 10 11 8 6 5 5 7 11 13 10 8 8 8 6 4 5 6 7 6 7 8 8 7 4 1 2 3 4 5 6 6 6 4 4 4 5 6 7 7
19 -1 -10 -5 3 5 6 6 7 8 5 -1 -0 5 6 5 2 -3 -4 2 4 3 0 0 3 1 0 7 12 10 4 1 9 16 18 19 13 6 10 14 13 12 9 5 4 6 6 5 6 8 9 9 8 6 3 4 8 9 8 10 11 12 8 2 3 10 12 10 6 6 9 8 4 2 4 6 7 7 8 9 8 4 2 3 4 4 4 5 6 5 5 5 5 6 5 6 7
Height
5904 5904 5904 5905 5905 5905 5905 5905 5906 5907 5906 5906 5905 5906 5906 5906 5907 5907 5906 5907 5908 5909 5909 5909 5910 5909 5910 5910 5910 5912 5911 5909 5908 5908 5911 5912 5911 5911 5911 5913 5914 5914 5914 5913 5914 5915 5915 5918 5919 5919 5918 5916 5916 5918 5918 5918 5918 5917 5916 5917 5917 5917 5917 5918 5918 5918 5919 5920 5920 5920 5921 5921 5921 5920 5920 5920 5919 5919 5919 5919 5919 5919 5918 5918 5918 5918 5918 5918 5918 5917 5916 5916 5916 5917 5918 5918 5916
5906 5906 5906 5906 5907 5907 5908 5907 5907 5906 5906 5907 5906 5907 5907 5907 5908 5908 5908 5908 5909 5910 5910 5910 5911 5911 5911 5912 5912 5912 5912 5910 5908 5909 5912 5913 5912 5912 5912 5914 5915 5916 5916 5915 5915 5916 5917 5919 5919 5918 5917 5917 5917 5918 5918 5918 5917 5916 5917 5919 5919 5919 5920 5920 5920 5920 5921 5921 5921 5921 5921 5921 5921 5921 5920 5920 5920 5920 5920 5920 5920 5920 5919 5919 5919 5919 5920 5919 5919 5918 5917 5917 5917 5918 5918 5918 5917
5907 5908 5908 5908 5908 5909 5909 5909 5907 5907 5908 5908 5907 5907 5908 5909 5910 5909 5909 5909 5910 5910 5910 5911 5912 5913 5912 5913 5914 5912 5913 5912 5909 5911 5914 5914 5913 5913 5914 5914 5915 5917 5917 5916 5917 5918 5918 5918 5918 5918 5918 5918 5918 5919 5919 5919 5918 5918 5919 5920 5921 5921 5920 5920 5920 5920 5921 5922 5922 5922 5922 5922 5921 5921 5921 5921 5921 5921 5921 5921 5921 5920 5920 5919 5919 5920 5921 5921 5920 5919 5919 5919 5919 5919 5919 5919 5918
5908 5909 5909 5909 5909 5909 5910 5909 5907 5908 5910 5909 5908 5908 5909 5910 5911 5911 5910 5910 5911 5911 5911 5912 5913 5914 5914 5913 5914 5913 5914 5914 5911 5912 5915 5915 5914 5915 5915 5915 5916 5918 5918 5918 5919 5920 5919 5919 5919 5919 5920 5920 5920 5920 5920 5920 5920 5920 5920 5920 5921 5921 5921 5921 5921 5921 5921 5922 5922 5922 5922 5922 5922 5921 5921 5921 5922 5922 5922 5921 5921 5920 5920 5920 5920 5921 5921 5921 5921 5921 5921 5920 5919 5919 5920 5920 5919
5910 5910 5910 5911 5911 5911 5910 5908 5907 5909 5910 5910 5910 5909 5910 5911 5912 5912 5912 5912 5912 5912 5912 5913 5914 5915 5915 5914 5914 5913 5914 5915 5913 5913 5916 5917 5915 5915 5916 5916 5917 5918 5919 5919 5920 5921 5921 5921 5921 5921 5921 5921 5921 5922 5922 5922 5922 5922 5921 5920 5920 5921 5921 5921 5921 5922 5922 5922 5922 5923 5922 5922 5922 5922 5922 5922 5922 5922 5922 5921 5921 5921 5921 5921 5921 5922 5922 5922 5923 5923 5922 5921 5920 5919 5920 5920 5920
5911 5912 5913 5913 5913 5912 5910 5909 5909 5911 5911 5911 5912 5911 5911 5912 5912 5913 5913 5913 5913 5913 5914 5915 5915 5916 5916 5915 5915 5913 5914 5915 5915 5914 5916 5918 5916 5916 5917 5918 5918 5919 5919 5919 5920 5921 5922 5922 5922 5922 5922 5922 5922 5922 5923 5923 5923 5923 5922 5921 5921 5921 5921 5921 5922 5922 5923 5923 5923 5923 5923 5923 5922 5922 5922 5922 5922 5922 5922 5922 5922 5921 5921 5921 5921 5922 5922 5923 5923 5923 5922 5921 5920 5919 5919 5920 5920
5913 5914 5915 5915 5914 5913 5911 5910 5911 5912 5912 5912 5913 5913 5913 5913 5913 5914 5914 5914 5914 5914 5915 5916 5916 5916 5916 5916 5916 5916 5916 5915 5916 5916 5916 5918 5918 5917 5918 5918 5919 5919 5919 5920 5921 5922 5922 5923 5923 5923 5924 5924 5923 5923 5923 5924 5924 5924 5923 5922 5922 5922 5922 5922 5923 5923 5924 5924 5924 5924 5923 5923 5923 5923 5923 5923 5923 5922 5922 5922 5922 5922 5922 5922 5922 5922 5922 5923 5923 5923 5923 5922 5921 5920 5919 5920 5920
5915 5916 5916 5916 5914 5913 5912 5912 5913 5913 5913 5913 5914 5914 5914 5914 5914 5915 5915 5915 5915 5915 5916 5916 5917 5916 5917 5917 5917 5918 5918 5917 5917 5917 5917 5918 5919 5919 5919 5919 5919 5920 5920 5920 5921 5922 5922 5923 5923 5924 5925 5924 5924 5924 5924 5925 5924 5924 5924 5923 5923 5923 5924 5924 5924 5925 5925 5925 5925 5925 5924 5924 5924 5923 5923 5923 5923 5923 5922 5922 5922 5922 5922 5921 5921 5922 5922 5922 5922 5923 5923 5923 5922 5920 5920 5920 5921
5916 5917 5917 5917 5915 5914 5914 5914 5914 5914 5914 5915 5915 5915 5915 5915 5915 5916 5916 5916 5916 5916 5916 5917 5917 5917 5917 5918 5917 5918 5919 5919 5918 5918 5918 5919 5920 5920 5920 5920 5920 5920 5920 5921 5922 5922 5922 5923 5923 5924 5924 5924 5924 5925 5926 5926 5925 5925 5924 5924 5924 5925 5925 5925 5925 5926 5926 5926 5925 5925 5925 5925 5925 5924 5924 5924 5923 5923 5922 5922 5922 5921 5921 5921 5921 5920 5920 5921 5921 5922 5923 5922 5921 5921 5921 5921 5921
5918 5919 5919 5918 5917 5917 5916 5915 5915 5914 5915 5915 5916 5916 5916 5916 5916 5917 5917 5917 5917 5917 5917 5917 5917 5917 5918 5919 5918 5918 5919 5919 5919 5919 5919 5920 5920 5921 5921 5921 5921 5921 5921 5922 5923 5923 5923 5924 5924 5924 5924 5924 5925 5925 5926 5926 5926 5925 5925 5925 5925 5926 5926 5926 5927 5927 5927 5927 5926 5926 5926 5926 5925 5925 5925 5924 5924 5923 5923 5922 5921 5921 5921 5920 5920 5920 5920 5920 5921 5921 5922 5922 5921 5921 5921 5921 5920
5920 5921 5921 5920 5919 5919 5918 5917 5916 5916 5916 5916 5916 5916 5916 5917 5917 5918 5918 5918 5918 5917 5918 5917 5917 5917 5918 5919 5919 5919 5919 5919 5919 5919 5920 5920 5920 5920 5921 5921 5922 5922 5923 5923 5924 5925 5925 5925 5924 5924 5924 5924 5925 5925 5926 5925 5925 5925 5926 5926 5926 5926 5927 5928 5928 5929 5928 5928 5927 5927 5927 5926 5926 5925 5925 5925 5924 5924 5923 5923 5922 5921 5921 5920 5920 5919 5919 5919 5920 5920 5921 5921 5921 5921 5920 5920 5920
5922 5922 5922 5922 5921 5921 5920 5918 5918 5917 5917 5916 5916 5916 5917 5917 5918 5918 5919 5919 5918 5918 5918 5918 5917 5918 5919 5920 5920 5920 5920 5920 5919 5919 5920 5920 5920 5920 5921 5922 5923 5923 5924 5924 5925 5925 5925 5925 5924 5924 5924 5924 5925 5926 5926 5926 5926 5926 5926 5927 5927 5927 5928 5929 5929 5929 5929 5929 5928 5928 5927 5926 5926 5925 5925 5925 5924 5924 5923 5923 5922 5921 5921 5920 5920 5920 5919 5919 5919 5919 5920 5920 5921 5921 5920 5920 5920
5923 5923 5923 5922 5922 5921 5921 5920 5919 5919 5918 5917 5917 5917 5917 5917 5918 5919 5919 5919 5919 5918 5918 5918 5918 5918 5919 5920 5920 5921 5920 5920 5919 5919 5919 5920 5920 5921 5922 5922 5923 5924 5924 5925 5925 5925 5925 5924 5924 5924 5924 5925 5926 5926 5926 5927 5927 5927 5927 5928 5928 5928 5929 5929 5929 5930 5930 5930 5929 5928 5927 5926 5925 5925 5924 5924 5923 5923 5923 5922 5922 5921 5920 5919 5919 5919 5919 5918 5918 5918 5919 5920 5920 5920 5920 5920 5920
5925 5925 5923 5922 5922 5921 5921 5921 5921 5920 5920 5920 5919 5919 5918 5918 5919 5919 5919 5920 5920 5919 5919 5919 5919 5919 5919 5920 5921 5921 5921 5920 5920 5919 5920 5920 5921 5922 5923 5923 5924 5924 5925 5925 5925 5925 5925 5924 5925 5925 5926 5927 5927 5927 5927 5928 5928 5928 5928 5928 5929 5929 5929 5930 5930 5930 5931 5930 5929 5928 5927 5926 5925 5924 5924 5924 5923 5922 5922 5922 5921 5920 5919 5919 5918 5918 5918 5918 5918 5917 5918 5919 5920 5920 5919 5919 5918
5925 5926 5924 5923 5922 5922 5922 5922 5922 5922 5921 5921 5921 5921 5920 5919 5920 5920 5921 5921 5921 5921 5921 5920 5920 5920 5919 5920 5922 5922 5921 5921 5920 5920 5920 5921 5922 5923 5924 5925 5925 5925 5925 5925 5926 5925 5925 5925 5925 5926 5927 5928 5928 5929 5929 5929 5929 5929 5929 5929 5930 5930 5930 5930 5930 5931 5931 5930 5929 5928 5927 5926 5924 5923 5923 5923 5922 5922 5921 5921 5921 5920 5919 5919 5918 5918 5917 5917 5916 5916 5916 5917 5918 5919 5919 5918 5918
5926 5925 5924 5923 5923 5922 5922 5923 5923 5923 5922 5921 5921 5921 5921 5921 5921 5922 5922 5922 5922 5922 5922 5922 5921 5921 5921 5921 5922 5922 5921 5921 5921 5920 5921 5922 5923 5924 5925 5925 5925 5925 5925 5926 5926 5926 5925 5926 5927 5928 5929 5929 5929 5930 5930 5930 5930 5931 5930 5931 5931 5931 5931 5930 5930 5931 5931 5930 5929 5928 5926 5925 5923 5922 5922 5922 5922 5921 5920 5920 5921 5920 5920 5918 5917 5917 5917 5916 5915 5915 5915 5916 5916 5917 5917 5917 5917
5926 5925 5924 5923 5923 5923 5922 5923 5923 5923 5923 5923 5922 5922 5921 5922 5922 5923 5923 5923 5923 5924 5924 5923 5923 5923 5922 5922 5923 5922 5922 5922 5921 5921 5921 5922 5923 5924 5925 5925 5925 5925 5926 5926 5926 5926 5926 5926 5928 5929 5930 5930 5930 5931 5931 5931 5931 5931 5932 5932 5932 5931 5931 5931 5931 5931 5931 5930 5929 5928 5926 5924 5923 5921 5921 5921 5921 5920 5919 5920 5920 5920 5919 5918 5917 5916 5916 5915 5914 5913 5913 5914 5914 5915 5915 5916 5915
5925 5924 5923 5923 5923 5923 5923 5924 5924 5924 5924 5924 5923 5923 5922 5922 5922 5923 5924 5924 5924 5924 5924 5924 5924 5924 5923 5923 5923 5923 5922 5922 5922 5922 5922 5923 5924 5925 5925 5925 5926 5927 5927 5927 5927 5926 5926 5927 5929 5931 5931 5931 5931 5931 5931 5931 5931 5932 5932 5933 5933 5933 5932 5932 5932 5932 5931 5930 5929 5928 5926 5924 5922 5921 5920 5920 5920 5919 5919 5919 5919 5919 5918 5917 5916 5915 5915 5914 5913 5912 5911 5912 5912 5913 5913 5913 5913
5924 5924 5923 5922 5923 5924 5924 5924 5925 5925 5925 5925 5924 5923 5923 5923 5923 5924 5924 5924 5924 5924 5924 5924 5924 5924 5924 5923 5923 5923 5923 5923 5923 5922 5922 5923 5924 5925 5926 5927 5928 5929 5928 5927 5927 5927 5927 5929 5931 5932 5932 5932 5932 5931 5932 5932 5932 5933 5933 5934 5933 5933 5932 5932 5932 5932 5931 5930 5929 5927 5925 5924 5922 5921 5920 5920 5919 5919 5919 5919 5918 5918 5917 5916 5915 5914 5913 5912 5912 5911 5910 5910 5910 5910 5911 5911 5911
5924 5923 5923 5923 5923 5924 5924 5925 5925 5925 5926 5926 5925 5924 5924 5924 5924 5925 5925 5924 5924 5924 5924 5924 5924 5924 5924 5924 5923 5923 5923 5923 5923 5923 5923 5924 5925 5926 5927 5927 5928 5929 5929 5928 5928 5928 5929 5930 5931 5933 5933 5932 5932 5932 5932 5933 5933 5934 5934 5934 5933 5931 5931 5931 5931 5931 5930 5929 5928 5926 5925 5923 5922 5921 5921 5920 5920 5919 5919 5918 5918 5917 5915 5914 5913 5912 5912 5911 5910 5910 5909 5908 5908 5909 5909 5909 5909
5924 5923 5923 5924 5924 5925 5925 5925 5925 5926 5927 5927 5925 5925 5924 5924 5924 5925 5926 5925 5924 5924 5924 5924 5925 5925 5925 5924 5924 5924 5924 5924 5924 5924 5923 5924 5925 5926 5927 5927 5927 5928 5929 5929 5929 5929 5930 5931 5931 5932 5933 5933 5932 5933 5933 5933 5934 5935 5935 5933 5932 5930 5929 5929 5929 5929 5928 5928 5926 5925 5925 5924 5922 5921 5921 5920 5920 5919 5919 5918 5917 5916 5914 5913 5912 5911 5911 5910 5910 5909 5908 5907 5907 5907 5907 5907 5907
5923 5925 5925 5925 5925 5925 5926 5926 5927 5927 5927 5926 5925 5925 5925 5924 5924 5925 5926 5925 5924 5924 5924 5924 5925 5925 5925 5925 5925 5924 5924 5924 5924 5924 5924 5924 5925 5927 5928 5928 5928 5928 5929 5930 5930 5930 5930 5931 5931 5932 5933 5933 5932 5933 5933 5934 5934 5935 5934 5933 5931 5929 5929 5928 5927 5927 5927 5926 5925 5925 5925 5924 5922 5921 5921 5920 5919 5919 5919 5918 5916 5915 5914 5912 5911 5910 5910 5910 5909 5908 5907 5906 5906 5906 5906 5906 5905
5924 5926 5926 5925 5926 5926 5926 5927 5929 5929 5928 5926 5924 5925 5925 5925 5925 5925 5926 5925 5925 5924 5924 5924 5925 5925 5926 5926 5926 5925 5925 5925 5925 5925 5925 5925 5926 5927 5928 5929 5929 5929 5929 5930 5930 5930 5930 5931 5931 5932 5934 5934 5933 5933 5934 5934 5934 5934 5933 5932 5930 5929 5928 5928 5927 5927 5926 5926 5925 5925 5925 5924 5923 5921 5920 5920 5919 5919 5918 5918 5916 5914 5913 5912 5911 5910 5910 5909 5908 5907 5906 5905 5905 5905 5905 5904 5904
5925 5925 5925 5925 5925 5925 5926 5928 5929 5929 5928 5926 5925 5925 5925 5925 5925 5926 5927 5926 5925 5924 5924 5924 5924 5925 5926 5926 5927 5926 5926 5925 5925 5926 5926 5926 5926 5927 5928 5928 5929 5929 5930 5930 5930 5930 5930 5931 5931 5933 5935 5935 5934 5933 5934 5935 5934 5933 5932 5931 5930 5930 5929 5928 5928 5928 5927 5927 5925 5924 5924 5924 5923 5921 5921 5920 5920 5919 5918 5916 5915 5913 5912 5912 5911 5910 5910 5909 5907 5906 5906 5905 5904 5903 5902 5902 5902
5926 5925 5925 5926 5926 5926 5927 5928 5930 5929 5928 5927 5926 5926 5925 5926 5926 5927 5927 5926 5925 5925 5924 5924 5925 5925 5925 5926 5927 5927 5926 5926 5926 5926 5926 5926 5927 5928 5928 5929 5929 5929 5930 5930 5930 5931 5931 5931 5932 5933 5934 5935 5934 5934 5934 5934 5933 5932 5932 5931 5931 5930 5929 5929 5929 5928 5927 5927 5926 5924 5923 5922 5922 5921 5921 5920 5920 5919 5917 5916 5914 5913 5912 5911 5911 5910 5909 5908 5906 5905 5904 5904 5903 5902 5901 5900 5899
5928 5928 5927 5927 5926 5926 5926 5928 5929 5929 5929 5928 5927 5926 5926 5927 5927 5927 5928 5927 5926 5926 5925 5925 5925 5925 5925 5925 5926 5926 5927 5926 5926 5926 5927 5927 5927 5928 5929 5930 5930 5930 5930 5931 5931 5932 5932 5932 5933 5934 5934 5934 5934 5934 5933 5933 5933 5931 5931 5932 5932 5931 5930 5929 5928 5927 5927 5927 5926 5923 5922 5921 5921 5920 5920 5920 5919 5918 5917 5916 5915 5913 5912 5911 5910 5909 5908 5907 5905 5904 5903 5902 5902 5901 5900 5899 5898
5929 5929 5928 5926 5926 5925 5926 5928 5928 5928 5928 5928 5928 5927 5927 5928 5928 5928 5928 5928 5928 5927 5927 5926 5926 5926 5925 5925 5926 5926 5927 5927 5926 5926 5927 5927 5928 5929 5930 5930 5931 5932 5932 5932 5932 5933 5933 5933 5934 5935 5936 5935 5935 5934 5933 5933 5932 5931 5931 5932 5932 5931 5930 5929 5928 5927 5926 5926 5925 5923 5921 5920 5920 5920 5920 5919 5919 5918 5917 5916 5915 5914 5912 5911 5909 5908 5907 5906 5905 5903 5902 5901 5900 5900 5899 5898 5897
5929 5928 5927 5926 5926 5926 5927 5928 5927 5927 5928 5929 5928 5927 5928 5928 5928 5928 5929 5929 5929 5928 5928 5928 5927 5926 5926 5926 5926 5926 5926 5927 5927 5927 5928 5928 5929 5930 5930 5931 5932 5932 5933 5933 5933 5934 5934 5934 5935 5936 5936 5936 5936 5935 5933 5933 5932 5932 5931 5931 5931 5930 5929 5928 5927 5926 5926 5925 5924 5922 5921 5920 5920 5920 5919 5919 5918 5917 5916 5915 5914 5913 5911 5910 5908 5907 5906 5905 5904 5903 5902 5901 5901 5900 5899 5898 5897
5928 5927 5926 5926 5926 5926 5927 5927 5927 5927 5928 5929 5929 5928 5928 5928 5928 5929 5929 5929 5929 5930 5930 5929 5928 5928 5927 5926 5926 5926 5927 5927 5928 5928 5928 5929 5930 5930 5931 5932 5933 5933 5933 5934 5934 5934 5934 5935 5935 5935 5935 5935 5935 5934 5933 5933 5932 5932 5931 5930 5930 5928 5927 5927 5926 5925 5925 5924 5923 5922 5920 5919 5919 5919 5919 5918 5918 5917 5916 5915 5913 5911 5910 5908 5907 5906 5905 5904 5904 5904 5903 5902 5901 5900 5899 5898 5897
5928 5926 5926 5926 5925 5926 5926 5926 5927 5928 5929 5930 5930 5930 5929 5928 5929 5929 5929 5930 5930 5930 5930 5930 5929 5929 5929 5928 5927 5927 5927 5928 5928 5928 5929 5929 5930 5931 5931 5932 5933 5933 5933 5934 5934 5934 5934 5935 5934 5934 5934 5934 5933 5933 5932 5932 5932 5932 5931 5930 5929 5927 5926 5926 5924 5924 5923 5923 5923 5922 5921 5919 5919 5918 5918 5918 5917 5916 5916 5914 5913 5911 5909 5908 5907 5906 5905 5905 5905 5904 5904 5902 5901 5900 5899 5898 5897
5926 5925 5925 5924 5925 5925 5925 5925 5927 5928 5930 5931 5931 5930 5929 5928 5928 5928 5929 5930 5930 5931 5931 5931 5930 5930 5930 5929 5928 5928 5928 5928 5928 5928 5929 5929 5930 5931 5932 5932 5933 5933 5933 5934 5934 5934 5935 5935 5934 5934 5934 5933 5933 5932 5931 5931 5930 5931 5930 5930 5929 5927 5927 5926 5924 5924 5923 5923 5923 5922 5921 5919 5918 5918 5917 5917 5917 5916 5915 5914 5912 5911 5909 5908 5908 5907 5907 5906 5905 5905 5903 5902 5901 5899 5898 5897 5896
5924 5924 5924 5923 5923 5924 5924 5924 5926 5928 5930 5932 5931 5930 5930 5929 5928 5928 5928 5929 5930 5931 5931 5931 5931 5931 5931 5930 5930 5929 5928 5928 5928 5929 5929 5929 5930 5930 5931 5932 5932 5933 5933 5934 5934 5934 5934 5934 5935 5935 5934 5934 5933 5932 5931 5930 5930 5929 5929 5929 5928 5927 5927 5926 5925 5925 5924 5923 5922 5921 5919 5918 5918 5917 5917 5916 5916 5915 5914 5913 5912 5910 5909 5909 5908 5907 5906 5906 5905 5904 5902 5901 5900 5898 5897 5896 5895
5921 5922 5923 5923 5923 5923 5923 5924 5926 5927 5930 5931 5930 5930 5930 5929 5929 5928 5928 5929 5930 5931 5931 5931 5931 5931 5931 5931 5931 5930 5930 5929 5929 5929 5929 5930 5930 5931 5931 5931 5932 5932 5933 5933 5934 5934 5934 5934 5935 5935 5934 5934 5933 5933 5932 5931 5930 5929 5928 5927 5927 5926 5926 5925 5925 5925 5924 5922 5921 5919 5919 5918 5918 5917 5917 5916 5915 5914 5913 5912 5912 5910 5909 5908 5907 5906 5906 5905 5904 5903 5901 5900 5899 5898 5896 5895 5893
5919 5921 5923 5923 5923 5923 5923 5924 5924 5925 5928 5930 5930 5930 5931 5930 5930 5930 5929 5929 5930 5931 5931 5931 5931 5931 5931 5931 5931 5931 5931 5930 5930 5930 5930 5930 5931 5931 5931 5932 5932 5932 5932 5933 5934 5934 5934 5934 5935 5934 5934 5934 5933 5933 5932 5931 5930 5929 5928 5927 5926 5925 5925 5924 5924 5923 5922 5921 5920 5919 5919 5918 5918 5917 5917 5915 5914 5914 5913 5913 5912 5910 5909 5908 5907 5906 5905 5904 5903 5902 5900 5899 5898 5897 5895 5894 5893
5918 5920 5921 5922 5923 5923 5923 5923 5924 5925 5927 5929 5930 5930 5930 5930 5930 5931 5931 5931 5931 5931 5931 5930 5931 5931 5931 5931 5931 5931 5931 5931 5931 5931 5931 5931 5931 5931 5932 5932 5932 5932 5932 5932 5933 5934 5934 5934 5934 5934 5934 5933 5933 5932 5931 5930 5930 5929 5928 5927 5926 5925 5925 5924 5924 5923 5922 5922 5921 5921 5920 5919 5918 5917 5916 5914 5914 5913 5913 5912 5911 5910 5909 5907 5906 5905 5904 5903 5902 5901 5899 5898 5897 5895 5894 5893 5891
5919 5920 5921 5922 5923 5923 5923 5924 5924 5925 5926 5928 5929 5929 5929 5929 5930 5931 5932 5931 5931 5931 5931 5930 5930 5931 5931 5931 5931 5931 5932 5931 5931 5931 5931 5931 5931 5932 5932 5931 5931 5931 5932 5932 5933 5933 5934 5934 5934 5934 5934 5933 5932 5932 5931 5930 5929 5928 5927 5927 5926 5925 5924 5924 5923 5923 5922 5921 5921 5921 5920 5919 5918 5916 5915 5914 5914 5913 5912 5911 5910 5909 5908 5906 5905 5904 5904 5903 5901 5900 5898 5897 5895 5894 5893 5892 5890
5919 5920 5921 5922 5923 5923 5924 5924 5924 5924 5925 5927 5927 5928 5928 5929 5930 5931 5931 5931 5931 5931 5931 5931 5930 5930 5930 5930 5930 5931 5932 5932 5931 5931 5931 5931 5931 5931 5931 5931 5931 5931 5931 5932 5933 5933 5933 5934 5934 5934 5933 5933 5932 5932 5931 5930 5929 5928 5927 5927 5926 5925 5924 5924 5923 5922 5921 5920 5920 5920 5919 5918 5917 5916 5915 5914 5913 5912 5911 5910 5909 5908 5907 5906 5904 5903 5903 5901 5899 5898 5897 5896 5894 5893 5892 5891 5889
5916 5918 5921 5922 5922 5923 5923 5923 5923 5924 5925 5926 5926 5927 5927 5928 5929 5930 5931 5931 5930 5930 5931 5931 5931 5930 5931 5931 5931 5931 5931 5931 5932 5932 5932 5931 5931 5931 5931 5931 5931 5931 5931 5932 5933 5933 5933 5933 5933 5933 5933 5932 5932 5932 5931 5930 5929 5928 5928 5927 5926 5925 5924 5923 5922 5921 5920 5919 5919 5918 5917 5917 5916 5915 5914 5913 5912 5911 5910 5909 5908 5907 5906 5905 5904 5903 5902 5900 5898 5897 5896 5895 5894 5892 5891 5890 5888
5912 5915 5918 5920 5921 5923 5923 5922 5922 5922 5923 5924 5925 5925 5926 5927 5927 5929 5929 5930 5930 5930 5930 5930 5931 5931 5931 5931 5931 5930 5930 5931 5931 5931 5932 5932 5931 5931 5931 5931 5931 5931 5931 5932 5933 5933 5933 5933 5933 5932 5932 5932 5932 5931 5930 5930 5929 5928 5927 5926 5926 5925 5924 5923 5922 5920 5919 5918 5917 5916 5915 5915 5914 5913 5912 5911 5910 5909 5908 5908 5907 5906 5905 5904 5903 5902 5901 5899 5897 5896 5895 5894 5893 5891 5889 5889 5887
5909 5911 5915 5918 5920 5922 5922 5922 5922 5921 5921 5923 5924 5924 5925 5925 5925 5927 5928 5929 5930 5930 5929 5929 5929 5929 5929 5930 5931 5930 5930 5930 5930 5931 5931 5932 5931 5931 5931 5931 5931 5931 5931 5931 5932 5932 5932 5932 5932 5932 5932 5931 5931 5930 5930 5929 5929 5928 5927 5926 5925 5924 5923 5922 5921 5920 5918 5917 5916 5914 5913 5912 5911 5910 5909 5908 5908 5907 5906 5905 5905 5904 5903 5902 5901 5900 5899 5897 5896 5894 5893 5892 5890 5889 5887 5887 5885
5908 5910 5912 5915 5918 5920 5922 5922 5922 5920 5919 5921 5922 5923 5923 5923 5925 5925 5925 5926 5928 5929 5929 5929 5928 5927 5927 5928 5929 5929 5929 5929 5929 5929 5930 5930 5931 5930 5930 5931 5930 5930 5931 5931 5931 5931 5931 5930 5930 5931 5930 5930 5929 5929 5929 5928 5928 5927 5926 5925 5923 5922 5921 5921 5920 5919 5917 5916 5915 5913 5912 5910 5909 5908 5907 5906 5905 5905 5904 5903 5902 5901 5900 5899 5898 5897 5896 5895 5894 5892 5891 5889 5887 5886 5884 5883 5882
5907 5908 5910 5914 5917 5919 5920 5921 5920 5918 5917 5919 5921 5921 5921 5921 5924 5924 5923 5924 5925 5926 5927 5928 5926 5925 5925 5925 5926 5927 5928 5928 5928 5928 5929 5929 5929 5929 5930 5930 5930 5930 5930 5930 5930 5930 5929 5929 5929 5929 5929 5928 5927 5927 5927 5927 5927 5926 5924 5923 5922 5921 5920 5919 5918 5917 5916 5915 5913 5912 5910 5909 5908 5907 5906 5905 5904 5902 5901 5900 5899 5898 5897 5896 5895 5894 5893 5892 5891 5889 5888 5886 5885 5883 5881 5879 5879
5906 5907 5909 5913 5916 5917 5917 5917 5917 5915 5916 5918 5919 5920 5920 5920 5923 5923 5921 5921 5922 5924 5925 5924 5924 5924 5923 5923 5924 5925 5926 5926 5927 5927 5927 5927 5928 5928 5928 5929 5929 5929 5929 5929 5929 5928 5928 5927 5927 5927 5927 5926 5926 5926 5926 5925 5925 5924 5923 5922 5921 5920 5919 5918 5917 5916 5915 5914 5912 5911 5909 5907 5906 5905 5903 5902 5901 5900 5898 5897 5896 5895 5894 5893 5891 5890 5889 5888 5887 5886 5885 5884 5882 5880 5878 5876 5875
5905 5907 5910 5913 5915 5915 5915 5914 5914 5914 5916 5917 5916 5918 5919 5919 5921 5922 5920 5919 5920 5922 5922 5921 5922 5922 5923 5923 5923 5924 5924 5925 5926 5926 5926 5926 5926 5926 5926 5927 5927 5927 5927 5927 5927 5926 5926 5926 5926 5925 5925 5925 5925 5925 5924 5923 5923 5922 5922 5921 5920 5919 5918 5917 5916 5915 5914 5912 5911 5909 5907 5906 5904 5903 5901 5900 5898 5897 5896 5895 5893 5892 5890 5889 5888 5887 5885 5884 5883 5882 5881 5881 5879 5877 5875 5873 5871
5905 5908 5911 5913 5913 5913 5913 5913 5914 5914 5914 5913 5913 5916 5917 5917 5920 5919 5918 5917 5918 5920 5920 5920 5920 5920 5921 5922 5922 5922 5922 5922 5924 5925 5925 5925 5925 5924 5924 5925 5925 5925 5925 5925 5924 5924 5924 5924 5924 5924 5924 5924 5923 5923 5922 5921 5921 5920 5920 5920 5919 5918 5916 5915 5914 5913 5911 5910 5908 5907 5905 5904 5902 5901 5899 5898 5897 5895 5894 5893 5891 5889 5888 5887 5885 5884 5882 5881 5880 5878 5877 5876 5875 5873 5872 5870 5868
5905 5908 5909 5911 5911 5911 5911 5912 5913 5911 5909 5909 5911 5914 5915 5915 5917 5917 5916 5916 5917 5917 5918 5919 5919 5918 5919 5920 5921 5921 5921 5920 5921 5922 5923 5923 5923 5923 5922 5923 5923 5923 5923 5923 5922 5923 5922 5922 5922 5921 5921 5921 5921 5921 5920 5919 5919 5918 5917 5917 5916 5915 5913 5912 5911 5910 5908 5907 5905 5904 5903 5902 5900 5899 5898 5896 5894 5893 5892 5891 5889 5888 5886 5885 5883 5881 5880 5879 5877 5875 5874 5872 5871 5870 5868 5867 5865
5905 5906 5906 5908 5909 5909 5909 5909 5910 5909 5906 5906 5910 5912 5913 5912 5913 5914 5913 5914 5915 5915 5916 5917 5917 5916 5917 5918 5919 5919 5919 5919 5919 5919 5920 5921 5921 5921 5921 5921 5921 5921 5921 5920 5920 5920 5920 5920 5919 5918 5918 5918 5919 5918 5918 5918 5917 5916 5914 5913 5912 5912 5910 5909 5908 5907 5906 5905 5903 5902 5900 5899 5898 5897 5895 5894 5892 5891 5890 5889 5888 5886 5884 5883 5881 5879 5877 5876 5874 5873 5871 5869 5867 5866 5864 5863 5861
5900 5901 5903 5905 5906 5907 5907 5906 5906 5905 5904 5906 5909 5910 5909 5908 5909 5911 5911 5913 5914 5914 5914 5914 5915 5914 5915 5916 5917 5917 5917 5917 5917 5917 5918 5918 5919 5919 5919 5919 5918 5918 5918 5918 5918 5918 5917 5917 5916 5916 5915 5915 5916 5916 5916 5915 5914 5913 5912 5910 5909 5908 5907 5907 5906 5905 5904 5903 5901 5900 5898 5897 5896 5895 5893 5892 5890 5889 5887 5886 5885 5884 5882 5880 5879 5877 5875 5873 5871 5870 5868 5866 5864 5862 5861 5859 5858
5896 5897 5899 5901 5902 5903 5903 5902 5902 5902 5903 5906 5908 5908 5905 5903 5906 5909 5909 5911 5913 5912 5912 5912 5913 5912 5913 5914 5915 5915 5915 5915 5915 5915 5916 5916 5916 5916 5916 5916 5916 5916 5915 5915 5916 5915 5914 5914 5913 5914 5913 5913 5913 5913 5913 5912 5911 5910 5909 5908 5907 5905 5904 5904 5903 5903 5902 5901 5900 5898 5897 5895 5894 5893 5891 5889 5888 5886 5884 5883 5882 5881 5879 5878 5876 5874 5872 5870 5868 5866 5864 5863 5861 5859 5858 5856 5854
5893 5894 5895 5896 5897 5898 5899 5899 5900 5900 5902 5905 5907 5905 5901 5901 5904 5907 5909 5910 5911 5911 5910 5910 5910 5910 5911 5912 5912 5913 5913 5913 5914 5914 5914 5914 5914 5914 5913 5914 5914 5914 5913 5913 5913 5913 5912 5911 5910 5910 5910 5910 5910 5909 5909 5908 5907 5907 5906 5905 5904 5903 5902 5901 5900 5900 5899 5898 5897 5895 5894 5893 5891 5890 5889 5887 5885 5883 5881 5880 5879 5878 5877 5875 5873 5871 5869 5867 5864 5862 5860 5859 5857 5855 5854 5852 5850
5891 5892 5893 5894 5894 5895 5897 5898 5899 5901 5902 5905 5905 5903 5900 5901 5904 5907 5909 5909 5909 5909 5909 5908 5908 5909 5909 5909 5910 5910 5911 5911 5911 5912 5913 5913 5912 5911 5911 5911 5911 5911 5911 5911 5911 5911 5910 5909 5908 5907 5907 5906 5906 5906 5905 5904 5904 5903 5903 5902 5902 5901 5900 5899 5897 5896 5896 5895 5893 5892 5890 5889 5888 5887 5885 5884 5882 5880 5878 5877 5876 5875 5874 5872 5870 5868 5866 5864 5861 5859 5857 5855 5853 5851 5850 5848 5846
5889 5890 5890 5890 5891 5893 5895 5897 5898 5900 5901 5902 5902 5901 5900 5901 5903 5905 5907 5906 5906 5907 5906 5906 5906 5906 5907 5906 5907 5908 5909 5908 5908 5909 5910 5910 5910 5909 5908 5908 5908 5909 5909 5909 5909 5908 5908 5907 5905 5904 5904 5903 5903 5903 5902 5901 5901 5900 5900 5899 5899 5898 5897 5896 5895 5893 5892 5891 5890 5888 5887 5886 5885 5884 5882 5880 5878 5876 5875 5874 5873 5872 5870 5869 5867 5865 5863 5860 5858 5856 5854 5852 5850 5848 5846 5844 5842
5886 5886 5885 5887 5890 5892 5894 5894 5894 5895 5896 5897 5899 5899 5898 5898 5900 5902 5903 5903 5904 5904 5904 5904 5904 5904 5904 5904 5905 5906 5906 5906 5906 5906 5907 5907 5907 5906 5906 5906 5906 5906 5907 5907 5906 5906 5905 5904 5903 5902 5901 5901 5900 5900 5899 5899 5898 5897 5897 5896 5895 5895 5894 5893 5892 5891 5890 5888 5886 5885 5884 5883 5882 5880 5879 5877 5875 5873 5871 5870 5869 5867 5866 5865 5863 5862 5859 5857 5855 5853 5851 5848 5846 5844 5842 5840 5837
5881 5882 5884 5888 5889 5889 5890 5890 5891 5892 5892 5894 5897 5897 5896 5896 5897 5898 5900 5900 5901 5901 5902 5902 5902 5902 5902 5902 5903 5903 5903 5903 5903 5903 5904 5904 5904 5903 5903 5903 5904 5904 5904 5904 5904 5903 5903 5902 5901 5900 5899 5898 5898 5898 5897 5896 5896 5895 5894 5893 5892 5891 5890 5890 5889 5888 5887 5885 5883 5882 5880 5879 5878 5877 5875 5873 5871 5870 5868 5867 5865 5864 5863 5861 5860 5858 5856 5853 5851 5849 5846 5844 5841 5839 5837 5835 5832
5877 5880 5884 5885 5885 5885 5885 5886 5888 5889 5890 5892 5893 5894 5893 5893 5894 5895 5897 5898 5899 5899 5900 5900 5900 5900 5900 5900 5900 5900 5899 5899 5899 5899 5900 5900 5900 5900 5900 5901 5901 5901 5902 5902 5902 5901 5901 5900 5899 5898 5898 5897 5896 5896 5895 5894 5893 5892 5891 5890 5889 5888 5887 5886 5886 5885 5883 5882 5880 5878 5877 5876 5875 5873 5871 5870 5868 5867 5865 5864 5862 5861 5859 5858 5856 5854 5852 5849 5847 5844 5842 5839 5837 5834 5832 5830 5827
5874 5877 5880 5881 5882 5883 5884 5885 5886 5887 5887 5888 5889 5889 5890 5890 5891 5893 5894 5895 5896 5897 5897 5897 5898 5898 5899 5898 5898 5897 5897 5896 5896 5896 5896 5897 5897 5897 5898 5898 5898 5898 5899 5900 5900 5899 5899 5898 5897 5896 5895 5895 5894 5893 5893 5892 5891 5889 5888 5886 5885 5884 5884 5883 5882 5882 5880 5878 5876 5875 5874 5872 5871 5869 5867 5866 5865 5863 5862 5860 5859 5857 5855 5854 5852 5850 5847 5845 5843 5840 5837 5835 5832 5829 5827 5825 5822
5870 5871 5873 5876 5878 5880 5882 5883 5883 5884 5884 5885 5885 5885 5886 5887 5888 5890 5891 5892 5893 5894 5894 5895 5895 5895 5896 5895 5895 5894 5893 5893 5893 5894 5893 5894 5894 5894 5895 5895 5895 5896 5897 5897 5897 5897 5897 5896 5895 5894 5893 5893 5892 5890 5890 5889 5888 5886 5884 5883 5881 5881 5880 5879 5878 5878 5877 5875 5873 5872 5870 5868 5866 5865 5863 5862 5861 5859 5858 5857 5855 5853 5851 5849 5847 5845 5843 5841 5838 5836 5833 5830 5828 5825 5822 5819 5816
5868 5868 5870 5872 5874 5877 5879 5879 5879 5880 5881 5882 5882 5882 5882 5884 5885 5887 5888 5889 5890 5890 5891 5891 5892 5892 5892 5892 5892 5892 5890 5890 5891 5891 5891 5892 5892 5893 5893 5893 5893 5893 5894 5894 5895 5895 5894 5894 5893 5892 5891 5890 5889 5888 5887 5885 5884 5883 5881 5879 5877 5877 5876 5875 5874 5874 5873 5871 5870 5868 5866 5864 5863 5861 5859 5858 5857 5855 5854 5853 5851 5849 5847 5845 5843 5841 5839 5837 5834 5830 5827 5825 5822 5820 5817 5814 5811